{"data":{"norad_id":59377,"intl_designator":"2024-062D","name":"STARLINK-31716","alt_names":[],"object_type":"PAYLOAD","status":"ACTIVE","operator":null,"country":"US","launch_date":"2024-04-02","launch_site_code":"AFWTR","launch_vehicle":null,"mission":null,"orbit_class":"UNKNOWN","rcs_meters":null,"size_class":null,"mass_kg":null,"dimensions":null,"purposes":["comms"],"wikipedia_slug":null,"has_3d_model":false,"image_url":null,"decayed_at":null,"tle_current":{"epoch":"2026-09-21T18:00:14.986080Z","epoch_age_seconds":54286,"freshness":"FRESH","line1":"1 59377U 24062D   26264.75017345  .00000749  00000+0  33301-4 0  9990","line2":"2 59377  53.1589  15.6620 0001449 115.9466 244.1686 15.34395735140331","mean_motion":15.34395735,"eccentricity":0.0001449,"inclination_deg":53.1589,"raan_deg":15.662,"arg_perigee_deg":115.9466,"mean_anomaly_deg":244.1686,"bstar":3.3301e-5,"rev_number":14033,"period_min":93.848018940173,"perigee_km":461.72467712764,"apogee_km":463.70715630291,"semimajor_km":6840.8529167153,"source":"CELESTRAK","updated_at":"2026-09-22T09:00:48.908437Z"}}}